Regional Weather Roundup
Issued by NWS

Home | Current Version | Previous Version | Graphics & Text | Print | Product List | Glossary On
Versions: 1 2 3 4 5 6 7 8 9 10 11 12 13 14 15 16 17 18 19 20 21 22 23 24 25 26 27 28 29 30 31 32 33 34 35 36 37 38 39 40 41 42 43 44 45 46 47 48 49 50
563
ASUS45 KTFX 290010
RWRMT
MONTANA REGIONAL WEATHER ROUNDUP
NATIONAL WEATHER SERVICE GREAT FALLS MT
600 PM MDT THU JUL 28 2016

NOTE: "FAIR" INDICATES FEW OR NO CLOUDS BELOW 12000 FEET WITH NO
SIGNIFICANT WEATHER AND/OR OBSTRUCTIONS TO VISIBILITY.

MTZ001>007-043-290100-
WEST OF THE DIVIDE

CITY           SKY/WX    TMP DP  RH WIND       PRES   REMARKS
KALISPELL      PTSUNNY   87  54  32 NE6       30.04F
MISSOULA       SUNNY     91  45  20 N9        30.05F
BUTTE          SUNNY     84  39  20 N9        30.19S
MULLAN PASS    SUNNY     77  47  34 VRB3      30.27F
ANACONDA         N/A     82  45  26 NE7       30.15F
DEER LODGE       N/A     82  43  24 NW9       30.15F
EUREKA           N/A     88  48  25 CALM      30.05F
HAMILTON         N/A     88  48  25 CALM      30.07F
LIBBY            N/A     90  45  20 NW7       30.03F
PLAINS           N/A     94  46  19 NW7       30.02  HX  90
RONAN            N/A     87  49  26 N3        30.10F
$$

MTZ008-052>055-290100-
SOUTHWEST MONTANA

CITY           SKY/WX    TMP DP  RH WIND       PRES   REMARKS
BOZEMAN        SUNNY     85  48  27 NE5       30.12F
DILLON         SUNNY     87  38  17 N8        30.14F
W YELLOWSTONE  SUNNY     79  32  18 NW10G17   30.26S
ENNIS          SUNNY     84  32  15 W6        30.20F
THREE FORKS      N/A     88  88 100 NE6       30.09F HX 121
TWIN BRIDGES     N/A     85  44  23 S7        30.11
$$

MTZ009-010-012-014-046-048-049-054-290100-
EAST SLOPES AND CENTRAL MONTANA

CITY           SKY/WX    TMP DP  RH WIND       PRES   REMARKS
CUT BANK         N/A     82  47  29 CALM      30.10F
GREAT FALLS    SUNNY     85  41  21 E5        30.09F
HELENA         SUNNY     89  45  21 E7        30.07F
CHOTEAU          N/A     84  48  28 VRB3      30.12F
CONRAD           N/A     83  55  37 NE3       30.12S
$$

MTZ011-013-016-021-045-047-050-051-290100-
NORTH CENTRAL MONTANA

CITY           SKY/WX    TMP DP  RH WIND       PRES   REMARKS
HAVRE          SUNNY     80  53  39 E12       30.08S
N BAR RANCH      N/A     75  48  38 S3G13     30.20S
CHINOOK          N/A     79  54  41 E9        30.08F
$$

MTZ017>020-022>027-061-062-290100-
NORTHEAST MONTANA

CITY           SKY/WX    TMP DP  RH WIND       PRES   REMARKS
GLASGOW        MOSUNNY   79  51  37 E5        30.09F
JORDAN           N/A     80  52  37 VRB5      30.11S
SIDNEY         SUNNY     77  53  43 NE6       30.10F
WOLF POINT     SUNNY     80  51  36 E6        30.09F
PLENTYWOOD       N/A     75  50  41 SE3       30.13S
SCOBEY           N/A     78  48  34 NE3       30.11S
$$

MTZ028>42-056>058-290100-
SOUTHCENTRAL AND SOUTHEAST MONTANA

CITY           SKY/WX    TMP DP  RH WIND       PRES   REMARKS
BAKER          LGT RAIN  66  61  84 S10       30.15R
BILLINGS       CLOUDY    79  50  36 NE6       30.14R
LIVINGSTON     SUNNY     80  50  34 E21       30.16S
MILES CITY     CLOUDY    78  53  41 NE8       30.09F
EKALAKA          N/A     72  57  58 NE9       30.12S
FORSYTH          N/A     79  52  38 NE8       30.09F
LAUREL           N/A     79  52  38 NE1       30.12F
ROUNDUP          N/A     76  50  40 CALM      30.05S
$$

REGIONAL REPORTS...DAKOTAS

CITY           SKY/WX    TMP DP  RH WIND       PRES   REMARKS
WILLISTON      MOSUNNY   75  52  44 SE3       30.11F
MINOT          MOSUNNY   77  52  41 E5        30.11S
DICKINSON      MOSUNNY   67  57  70 NE9       30.13F
CROSBY           N/A     72  55  56 E3        30.15S
WATFORD CITY     N/A    N/A N/A N/A MISG        N/A
BISMARCK       PTSUNNY   73  55  53 NE5       30.11S
GRAND FORKS    SUNNY     75  56  51 N12       30.07F
FARGO          SUNNY     77  60  55 N15       30.05S
BUFFALO SD       N/A     69  63  81 NE8       30.07F
RAPID CITY     MOSUNNY   74  55  51 N7        30.13R
$$

REGIONAL REPORTS...WYOMING/IDAHO/WASHINGTON

CITY           SKY/WX    TMP DP  RH WIND       PRES   REMARKS
GILLETTE       MOSUNNY   77  52  41 N13       30.17R
SHERIDAN       SUNNY     82  46  28 N10       30.15R
BUFFALO WY     CLOUDY    78  48  34 N15       30.21R
CODY           SUNNY     75  48  38 N9        30.19S
YELLOWSTONE LA   N/A     74  31  20 VRB6      30.35S
IDAHO FALLS    SUNNY     91  39  16 SE10      30.08F
SALMON         SUNNY     91  39  16 N3        30.00F
BOISE          SUNNY     98  37  12 NW9G22    29.97F HX  93
SPOKANE        MOSUNNY   95  43  16 VRB3      30.02F HX  91
$$

REGIONAL REPORTS...ALBERTA

CITY           SKY/WX    TMP DP  RH WIND       PRES   REMARKS
EDMONTON       SUNNY     79  59  50 W8        30.02F
CALGARY        PTSUNNY   77  57  50 NE8       30.10R
LETHBRIDGE     MOSUNNY   81  55  41 VRB2      30.07S
MEDICINE HAT   PTSUNNY   91  50  24 SE5       30.04F
WATERTON GATE    N/A     72  55  56 NW7         N/A
CARDSTON         N/A     73  54  49 N8          N/A
MILK RIVER       N/A     82  50  32 E3          N/A
ONEFOUR          N/A     81  46  30 SE12        N/A
$$

REGIONAL REPORTS...SASKATCHEWAN

CITY           SKY/WX    TMP DP  RH WIND       PRES   REMARKS
SWIFT CURRENT  SUNNY     77  52  41 S3        30.11S
REGINA         MOSUNNY   75  46  35 SE3       30.10F
SASKATOON      PTSUNNY   77  57  50 SW7       30.09R
CYPRESS HILLS    N/A     73  46  38 S5          N/A
VAL MARIE        N/A     77  46  33 S2          N/A
ROCKGLEN         N/A     73  50  43 S5          N/A
ASSINIBOIA       N/A     77  63  61 SW6         N/A
$$




USA.gov is the U.S. government's official web portal to all federal, state and local government web resources and services.